Palacios, TX

2:40 AM CST on December 14, 2017 (GMT -0600)
Palacios Municipal

Weather History for KPSX - September, 2014

Change the Weather History Date:

Tuesday, September 30, 2014

  Actual Average Record
Temperature  
Mean Temperature 78 °F -  
Max Temperature 89 °F 84 °F 93 °F (1953)
Min Temperature 73 °F 63 °F 49 °F (1992)
Cooling Degree Days 14    
Growing Degree Days 28 (Base 50)    
Moisture  
Dew Point 74 °F    
Average Humidity 83    
Maximum Humidity 96    
Minimum Humidity 69    
Precipitation  
Precipitation 0.14 in - - ()
Sea Level Pressure  
Sea Level Pressure 29.83 in    
Wind  
Wind Speed 6 mph (ENE)    
Max Wind Speed 14 mph    
Max Gust Speed -    
Visibility 8 miles    
Events Rain    
Averages and records for this station are not official NWS values.
T = Trace of Precipitation, MM = Missing Value Source: NWS Daily Summary

Daily Weather History Graph

Daily Weather History Graph

Search for Another Location

Airport or City:

Trip Planner

Search our weather history database for the weather conditions in past years. The results will help you decide how hot, cold, wet, or windy it might be!

Date:

Astronomy

Sep. 30, 2014 Rise Set
Actual Time 7:17 AM CDT 7:11 PM CDT
Civil Twilight 6:53 AM CDT 7:35 PM CDT
Nautical Twilight 6:26 AM CDT 8:02 PM CDT
Astronomical Twilight 5:59 AM CDT 8:30 PM CDT
Moon 1:05 PM CDT (9/30) No Moon Set
Length of Visible Light 12h 41m
Length of Day
11h 54m
Waxing Crescent, 38% of the Moon is Illuminated
Sep 30
Waxing Crescent
Oct 1
First Quarter
Oct 8
Full
Oct 15
Last Quarter
Oct 23
New

Hourly Weather History & Observations

Time (CDT) Temp. Heat Index Dew Point Humidity Pressure Visibility Wind Dir Wind Speed Gust Speed Precip Events Conditions
12:53 AM 75.9 °F - 73.0 °F 91% 29.85 in 8.0 mi East 5.8 mph - N/A   Partly Cloudy
1:53 AM 75.0 °F - 73.0 °F 94% 29.85 in 7.0 mi East 4.6 mph - N/A   Clear
2:53 AM 73.0 °F - 71.1 °F 93% 29.85 in 5.0 mi North 3.5 mph - N/A   Clear
3:53 AM 73.0 °F - 71.1 °F 93% 29.85 in 4.0 mi NNW 5.8 mph - N/A   Scattered Clouds
4:53 AM 73.0 °F - 72.0 °F 96% 29.84 in 4.0 mi NNE 3.5 mph - N/A   Overcast
5:53 AM 73.0 °F - 72.0 °F 96% 29.85 in 4.0 mi North 4.6 mph - N/A   Overcast
6:53 AM 73.0 °F - 71.1 °F 93% 29.86 in 3.0 mi North 4.6 mph - N/A   Overcast
7:26 AM 73.0 °F - 72.0 °F 96% 29.86 in 2.5 mi North 6.9 mph - N/A   Overcast
7:53 AM 73.9 °F - 72.0 °F 93% 29.86 in 2.5 mi NNE 5.8 mph - N/A   Mostly Cloudy
8:15 AM 75.0 °F - 73.0 °F 94% 29.86 in 3.0 mi NNE 6.9 mph - N/A   Mostly Cloudy
8:53 AM 77.0 °F - 73.9 °F 90% 29.86 in 5.0 mi NNE 6.9 mph - N/A   Clear
9:53 AM 81.0 °F 86.2 °F 73.9 °F 79% 29.87 in 10.0 mi ENE 10.4 mph - N/A   Clear
10:22 AM 82.0 °F 87.9 °F 73.9 °F 76% 29.87 in 10.0 mi ENE 11.5 mph - N/A   Mostly Cloudy
10:30 AM 82.0 °F 87.9 °F 73.9 °F 76% 29.87 in 10.0 mi East 10.4 mph - N/A   Scattered Clouds
10:53 AM 82.9 °F 89.4 °F 73.9 °F 74% 29.87 in 10.0 mi East 9.2 mph - N/A   Clear
11:31 AM 84.0 °F 91.2 °F 73.9 °F 72% 29.87 in 10.0 mi East 9.2 mph - N/A   Mostly Cloudy
11:50 AM 84.2 °F 90.9 °F 73.4 °F 70% 29.86 in 10.0 mi East 6.9 mph - N/A   Scattered Clouds
11:53 AM 84.0 °F 91.2 °F 73.9 °F 72% 29.86 in 10.0 mi ESE 6.9 mph - N/A   Mostly Cloudy
12:30 PM 84.0 °F 91.2 °F 73.9 °F 72% 29.86 in 10.0 mi WSW 3.5 mph - 0.00 in   Overcast
12:53 PM 84.0 °F 90.2 °F 73.0 °F 69% 29.85 in 10.0 mi SE 6.9 mph - 0.00 in   Mostly Cloudy
1:05 PM 82.0 °F 88.6 °F 75.0 °F 79% 29.85 in 2.0 mi NE 3.5 mph - 0.14 in Rain Heavy Rain
1:15 PM 82.9 °F 90.2 °F 75.0 °F 77% 29.84 in 10.0 mi Calm Calm - 0.14 in   Mostly Cloudy
1:28 PM 84.0 °F 92.6 °F 75.9 °F 76% 29.83 in 10.0 mi SE 4.6 mph - 0.14 in   Mostly Cloudy
1:53 PM 82.9 °F 90.2 °F 75.0 °F 77% 29.82 in 10.0 mi West 3.5 mph - 0.14 in   Overcast
2:27 PM 84.0 °F 91.9 °F 75.0 °F 74% 29.81 in 10.0 mi SE 9.2 mph - N/A   Scattered Clouds
2:53 PM 84.9 °F 94.1 °F 75.9 °F 74% 29.80 in 10.0 mi SE 13.8 mph - N/A   Scattered Clouds
3:40 PM 82.0 °F 88.6 °F 75.0 °F 79% 29.79 in 10.0 mi NNE 10.4 mph - N/A   Overcast
3:50 PM 82.4 °F 89.5 °F 75.2 °F 79% 29.79 in 10.0 mi NE 8.1 mph - N/A   Overcast
3:53 PM 82.0 °F 88.6 °F 75.0 °F 79% 29.79 in 10.0 mi NE 6.9 mph - N/A   Overcast
4:53 PM 84.0 °F 91.9 °F 75.0 °F 74% 29.78 in 10.0 mi ENE 8.1 mph - N/A   Mostly Cloudy
5:53 PM 82.9 °F 89.4 °F 73.9 °F 74% 29.78 in 10.0 mi ENE 9.2 mph - N/A   Scattered Clouds
7:18 PM 81.0 °F 87.3 °F 75.9 °F 85% 29.78 in 10.0 mi ENE 4.6 mph - N/A   Mostly Cloudy
7:32 PM 80.1 °F 85.4 °F 75.9 °F 87% 29.78 in 10.0 mi ENE 4.6 mph - N/A   Scattered Clouds
7:53 PM 80.1 °F 85.4 °F 75.9 °F 87% 29.78 in 10.0 mi ESE 5.8 mph - N/A   Scattered Clouds
8:53 PM 79.0 °F - 75.9 °F 90% 29.79 in 10.0 mi East 5.8 mph - N/A   Clear
9:53 PM 79.0 °F - 75.9 °F 90% 29.79 in 10.0 mi ESE 5.8 mph - N/A   Clear
10:53 PM 78.1 °F - 75.9 °F 93% 29.79 in 10.0 mi East 4.6 mph - N/A   Clear
11:53 PM 75.9 °F - 73.0 °F 91% 29.87 in 7.0 mi East 4.6 mph - N/A   Partly Cloudy